Powrót do katalogu

COSMOS 2251 DEB

AktywnyLEO
NORAD 34846·DEBRIS·🇷🇺 Russia

Wystrzelony Jun 16, 1993 z Plesetsk Cosmodrome

Loading…

Następne Przeloty (najbliższe 24 godziny)

TLE

ŚwieżeSource: Space-Track

Epoka: Sep 14, 2026, 08:26 UTC

1 34846U 93036ABQ 26257.35181372  .00001231  00000-0  33387-3 0  9992
2 34846  74.0275 105.7095 0025275 109.9328 250.4558 14.48509017913935

Śledź COSMOS 2251 DEB w czasie rzeczywistym z AllMySat

Download on the App Store